Stevens Pass
Grace Lakes & Old Faithful
Latest observation 08/31 21:00 PDT
| Time (PDT) | Temp °F 4790' | RH % 4790' | Min mph 4590' | Spd mph 4590' | Gust mph 4590' | Dir ° 4590' | SnoHt in 4790' | I/S_Sno in 4790' |
|---|---|---|---|---|---|---|---|---|
| 08/31 21:00 | 59 | 48 | 0 | 3 | 7 | 181 | 6.2 | 58.5 |
| 08/31 20:00 | 58 | 52 | 4 | 9 | 14 | 163 | 6.3 | 61.1 |
| 08/31 19:00 | 61 | 47 | 4 | 10 | 16 | 167 | 6.1 | 61.3 |
| 08/31 18:00 | 62 | 45 | 6 | 10 | 14 | 151 | 6.0 | 62.2 |
| 08/31 17:00 | 64 | 43 | 6 | 10 | 15 | 138 | 6.1 | 63.3 |
| 08/31 16:00 | 66 | 42 | 6 | 10 | 19 | 145 | 6.0 | 60.0 |
| 08/31 15:00 | 65 | 43 | 6 | 10 | 15 | 146 | 6.1 | 61.0 |
| 08/31 14:00 | 64 | 46 | 5 | 10 | 15 | 140 | 5.8 | 60.8 |
| 08/31 13:00 | 62 | 51 | 6 | 10 | 15 | 140 | 6.0 | 61.3 |
| 08/31 12:00 | 60 | 55 | 5 | 10 | 16 | 147 | 6.0 | 63.0 |
| 08/31 11:00 | 59 | 55 | 5 | 11 | 17 | 161 | 6.2 | 60.3 |
| 08/31 10:00 | 55 | 64 | 6 | 11 | 17 | 162 | 6.4 | 38.7 |
| 08/31 09:00 | 52 | 72 | 5 | 10 | 14 | 161 | 7.0 | -19.1 |
| 08/31 08:00 | 50 | 76 | 7 | 11 | 15 | 168 | 7.0 | -56.9 |
| 08/31 07:00 | 47 | 81 | 6 | 11 | 15 | 170 | 6.9 | -83.7 |
| 08/31 06:00 | 48 | 79 | 3 | 9 | 16 | 174 | 7.2 | -74.2 |
| 08/31 05:00 | 48 | 79 | 4 | 8 | 13 | 176 | 7.3 | -87.6 |
| 08/31 04:00 | 48 | 78 | 3 | 7 | 14 | 174 | 7.1 | -98.6 |
| 08/31 03:00 | 48 | 77 | 0 | 1 | 6 | 210 | 7.2 | -81.6 |
| 08/31 02:00 | 47 | 82 | 0 | 1 | 4 | 272 | 6.9 | -131.2 |
| 08/31 01:00 | 44 | 93 | 0 | 1 | 3 | 255 | 7.3 | -140.2 |
| 08/31 00:00 | 43 | 95 | 0 | 1 | 4 | 273 | 7.2 | -134.6 |
| 08/30 23:00 | 44 | 93 | 0 | 0 | 3 | 284 | 7.1 | -139.4 |
| 08/30 22:00 | 45 | 92 | 0 | 1 | 5 | 277 | 7.2 | -137.2 |

